Hourly Data Report for September 16, 2020

GIMLI CLIMATE
MANITOBA
Current Station Operator: ECCC - MSC

50°38'00.000" N
97°03'00.000" W
230.10 m
5031042
71748
PGH

Download Data

Hourly Data (September 2020)
Hourly Data Report for September 16, 2020
TIME Temp Definition
°C
Dew Point Definition
°C
Rel Hum Definition
%
Wind Dir Definition
10's deg

Wind Spd Definition
km/h
Visibility Definition
km
Stn Press Definition
kPa
Hmdx Definition


Wind Chill Definition


Weather Definition


00:00 11.0 6.7 75 31 12   98.77     LegendNANA
01:00 11.1 6.8 75 30 17   98.84     LegendNANA
02:00 9.9 7.1 83 30 17   98.89     LegendNANA
03:00 9.0 6.3 83 31 22   98.97     LegendNANA
04:00 8.2 5.3 82 32 20   99.08     LegendNANA
05:00 6.7 3.5 80 34 34   99.26     LegendNANA
06:00 4.9 0.0 71 33 21   99.43     LegendNANA
07:00 4.5 -2.1 63 33 17   99.57     LegendNANA
08:00 5.4 -3.9 51 32 20   99.65     LegendNANA
09:00 5.9 -3.4 51 36 23   99.69     LegendNANA
10:00 6.4 -4.6 45 36 20   99.77     LegendNANA
11:00 7.4 -4.4 43 33 16   99.81     LegendNANA
12:00 7.2 -7.1 35 32 13   99.78     LegendNANA
13:00 7.9 -7.5 33 28 10   99.73     LegendNANA
14:00 8.7 -7.9 30 32 14   99.69     LegendNANA
15:00 9.7 -8.6 27 29 14   99.66     LegendNANA
16:00 9.6 -7.7 29 29 17   99.61     LegendNANA
17:00 8.9 -6.5 33 29 16   99.62     LegendNANA
18:00 7.1 -6.4 38 31 9   99.60     LegendNANA
19:00 3.1 -5.5 53 31 5   99.62     LegendNANA
20:00 1.9 -2.9 70 26 4   99.62     LegendNANA
21:00 2.9 -2.2 69 28 6   99.63     LegendNANA
22:00 3.8 -1.8 67 28 6   99.65     LegendNANA
23:00 3.6 -1.7 68 29 7   99.67     LegendNANA

Notes on Data Quality.

Legend

  • E = Estimated
  • M = Missing
  • NA = Not Available*
  • [empty] = Indicates an unobserved value
Date modified: